Location: Vigo di Fassa
(46.4167°N, 11.6667°E)
Time: 19:49:20
(UTC+00:00)

Cosmos 2333 Rocket - Pass Details

Date: 03 March 2021
Orbit: 837 x 864 km, 70.8° (Epoch: 22 April)

Event Time Altitude Azimuth Distance (km) Brightness Sun altitude
Rises 18:46:49 0° 189° (S) 3,385 5.3 -18.7°
Reaches altitude 10° 18:49:17 10° 185° (S) 2,457 4.6 -19.1°
Maximum altitude 18:54:45 53° 110° (ESE) 1,036 2.2 -20.1°
Drops below altitude 10° 19:00:17 10° 35° (NE) 2,492 4.4 -21.0°
Sets 19:02:48 0° 31° (NNE) 3,436 5.2 -21.4°
